User: anonymous   Login
Location: Unspecified
(0.0000°N, 0.0000°E)
Time: 04:34:32
(UTC+00:00)
Language:

STARLINK-33925 - Orbit

View from above orbital plane
View from above orbital plane
View from above satellite
View from above satellite

Ground track
Ground track

The orbit is defined by the following mean orbital elements,

1 63793U          26145.57823464 +.00000000 +00000-0 +80809-3 0 00006
2 63793  43.0001 338.0963 0000836 267.9879  92.0877 15.27589642    07
Epoch (UTC): 25 May 2026 13:52:39
Eccentricity: 0.0000836
inclination: 43.0001°
perigee height: 482 km
apogee height: 484 km
right ascension of ascending node: 338.0963°
argument of perigee: 267.9879°
revolutions per day: 15.27589642
mean anomaly at epoch: 92.0877°

The dashed part of the orbit path shows where the satellite is in the earth's shadow,  

DLR